Location: Kitchener
(43.4500°N, 80.5000°W)
Time: 06:08:49
(UTC-04:00)

Cosmos 1939 Rocket - Visible Passes

Search period start: 29 May 2015 00:00
Search period end: 08 June 2015 00:00
Orbit: 535 x 591 km, 97.6° (Epoch: 28 May)

Date Brightness Start Highest point End Pass type
(mag) Time Alt. Az. Time Alt. Az. Time Alt. Az.
29 May 4.9 22:43:40 10° SSW 22:46:49 23° W 22:49:55 10° NW visible
30 May 4.9 22:43:31 10° SSW 22:46:39 23° W 22:49:47 10° NW visible
31 May 4.9 22:43:21 10° SSW 22:46:30 23° W 22:49:38 10° NW visible
01 Jun 4.9 22:43:11 10° SSW 22:46:21 23° W 22:49:30 10° NW visible
02 Jun 4.9 22:43:00 10° SSW 22:46:11 23° W 22:49:21 10° NW visible
03 Jun 4.9 22:42:50 10° SSW 22:46:02 23° W 22:49:12 10° NW visible
04 Jun 4.9 22:42:40 10° SSW 22:45:52 23° W 22:49:03 10° NW visible
05 Jun 4.9 22:42:29 10° SSW 22:45:42 23° W 22:48:54 10° NW visible
06 Jun 4.9 22:42:18 10° SSW 22:45:32 24° W 22:48:46 10° NW visible
07 Jun 4.9 22:42:08 10° SSW 22:45:22 24° W 22:48:36 10° NW visible
